Zurück zum Katalog

STARLINK-37817

AktivKommunikationSSO
NORAD 69480·PAYLOAD·🇺🇸 United States

Gestartet Jun 11, 2026 von Vandenberg Space Force Base

Loading…

Nächste Überflüge (nächste 24 Stunden)

TLE

AktuellSource: CelesTrak SupGP

Epoche: Sep 14, 2026, 14:46 UTC

1 69480C 26131C   26257.61576389 -.00025247  00000+0 -78360-3 0  2572
2 69480  97.2832 278.5105 0001560  96.5049 203.7860 15.33456295    13

Verfolge STARLINK-37817 in Echtzeit mit AllMySat

Download on the App Store